Millbury, OH

1:51 PM EST on December 10, 2016 (GMT -0500)
Metcalf

Weather History for KTDZ - February, 2014

Change the Weather History Date:

Wednesday, February 12, 2014

  Actual Average (KTOL) Record (KTOL)
Temperature  
Mean Temperature 2 °F -  
Max Temperature 14 °F 31 °F 61 °F (1984)
Min Temperature -11 °F 15 °F -14 °F (2014)
Degree Days  
Heating Degree Days 64    
Moisture  
Dew Point -7 °F    
Average Humidity 79    
Maximum Humidity 100    
Minimum Humidity 62    
Precipitation  
Precipitation 0.00 in - - ()
Sea Level Pressure  
Sea Level Pressure 30.35 in    
Wind  
Wind Speed 1 mph (ENE)    
Max Wind Speed 7 mph    
Max Gust Speed -    
Visibility 4 miles    
Events Fog , Snow    
Averages and records for this station are not official NWS values.
T = Trace of Precipitation, MM = Missing Value Source: NWS Daily Summary

Daily Weather History Graph

Daily Weather History Graph

Search for Another Location

Airport or City:

Trip Planner

Search our weather history database for the weather conditions in past years. The results will help you decide how hot, cold, wet, or windy it might be!

Date:

Astronomy

Feb. 12, 2014 Rise Set
Actual Time 7:33 AM EST 6:03 PM EST
Civil Twilight 7:04 AM EST 6:32 PM EST
Nautical Twilight 6:31 AM EST 7:05 PM EST
Astronomical Twilight 5:59 AM EST 7:37 PM EST
Moon 4:16 PM EST (2/12) 5:49 AM EST (2/12)
Length of Visible Light 11h 27m
Length of Day
10h 30m
Waxing Gibbous, 95% of the Moon is Illuminated
Feb 12
Waxing Gibbous
Feb 14
Full
Feb 22
Last Quarter
Mar 1
New
Mar 8
First Quarter

Hourly Weather History & Observations

Time (EST) Temp. Windchill Dew Point Humidity Pressure Visibility Wind Dir Wind Speed Gust Speed Precip Events Conditions
12:53 AM -4.0 °F - -9.9 °F 76% 30.51 in 5.0 mi Calm Calm - N/A   Haze
1:31 AM -5.1 °F - -9.9 °F 80% 30.45 in 4.0 mi Calm Calm - N/A   Haze
1:53 AM -6.0 °F - -9.9 °F 83% 30.49 in 3.0 mi Calm Calm - N/A   Partly Cloudy
2:05 AM -7.1 °F - -11.0 °F 83% 30.44 in 2.0 mi Calm Calm - N/A   Mostly Cloudy
2:07 AM -7.1 °F - -11.0 °F 83% 30.44 in 0.8 mi Calm Calm - N/A   Mist
2:38 AM -7.1 °F - -11.0 °F 83% 30.43 in 1.2 mi Calm Calm - N/A   Partly Cloudy
2:53 AM -7.1 °F - -11.9 °F 79% 30.47 in 2.0 mi Calm Calm - N/A   Haze
3:00 AM -8.0 °F - -11.9 °F 83% 30.41 in 6.0 mi Calm Calm - N/A   Clear
3:53 AM -9.0 °F - -14.1 °F 79% 30.44 in 7.0 mi Calm Calm - N/A   Clear
4:53 AM -9.0 °F - -14.1 °F 79% 30.45 in 5.0 mi Calm Calm - N/A   Haze
5:37 AM -9.9 °F - -16.1 °F 74% 30.40 in 7.0 mi Calm Calm - N/A   Scattered Clouds
5:53 AM -9.9 °F - -16.1 °F 74% 30.45 in 8.0 mi Calm Calm - N/A   Mostly Cloudy
6:40 AM -9.0 °F - -16.1 °F 71% 30.39 in 1.5 mi Calm Calm - N/A   Haze
6:48 AM -7.6 °F - -11.2 °F 84% 30.38 in 0.2 mi Calm Calm - N/A Fog Light Freezing Fog
6:53 AM -8.0 °F - -11.9 °F 83% 30.43 in 0.5 mi Calm Calm - N/A Fog Light Freezing Fog
7:20 AM -9.9 °F - -14.1 °F 82% 30.37 in 1.2 mi Calm Calm - N/A   Overcast
7:25 AM -9.9 °F - -14.1 °F 82% 30.37 in 3.0 mi Calm Calm - N/A   Overcast
7:37 AM -11.0 °F - -16.1 °F 78% 30.36 in 2.0 mi Calm Calm - N/A   Haze
7:53 AM -11.0 °F - -14.1 °F 86% 30.42 in 1.2 mi Calm Calm - N/A   Overcast
7:56 AM -11.0 °F - -15.0 °F 83% 30.37 in 0.8 mi Calm Calm - N/A   Overcast
8:40 AM -9.9 °F - -13.0 °F 86% 30.36 in 1.5 mi Calm Calm - N/A   Overcast
8:45 AM -9.0 °F - -13.0 °F 83% 30.36 in 0.8 mi Calm Calm - N/A   Overcast
8:53 AM -9.9 °F -19.2 °F -13.0 °F 86% 30.42 in 0.2 mi East 3.5 mph - N/A Fog Light Freezing Fog
9:40 AM -7.1 °F - -9.9 °F 87% 30.36 in 1.2 mi Calm Calm - N/A   Overcast
9:53 AM -5.1 °F - -5.1 °F 100% 30.41 in 2.5 mi Calm Calm - N/A   Scattered Clouds
10:39 AM -2.0 °F -10.1 °F -7.1 °F 79% 30.34 in 3.0 mi NNW 3.5 mph - 0.00 in Snow Light Snow
10:53 AM 1.0 °F - -2.9 °F 83% 30.38 in 4.0 mi Calm Calm - 0.00 in Snow Light Snow
11:53 AM 5.0 °F - 1.0 °F 84% 30.37 in 7.0 mi Calm Calm - 0.00 in   Clear
12:53 PM 9.0 °F 2.4 °F 1.9 °F 73% 30.33 in 7.0 mi East 3.5 mph - N/A   Clear
1:53 PM 10.9 °F 4.7 °F 3.0 °F 70% 30.28 in 8.0 mi ESE 3.5 mph - N/A   Clear
2:53 PM 12.9 °F 6.9 °F 3.9 °F 67% 30.23 in 8.0 mi ENE 3.5 mph - 0.00 in Snow Light Snow
3:53 PM 14.0 °F 8.2 °F 3.9 °F 64% 30.21 in 9.0 mi East 3.5 mph - 0.00 in   Clear
4:53 PM 14.0 °F 8.2 °F 3.0 °F 62% 30.21 in 9.0 mi ENE 3.5 mph - N/A   Clear
5:53 PM 10.0 °F 0.4 °F 1.0 °F 67% 30.20 in 8.0 mi East 5.8 mph - N/A   Clear
6:53 PM 7.0 °F - -0.0 °F 73% 30.21 in 9.0 mi Calm Calm - N/A   Clear
7:53 PM 5.0 °F -6.9 °F -0.9 °F 76% 30.20 in 7.0 mi East 6.9 mph - N/A   Scattered Clouds
8:53 PM 8.1 °F - 1.9 °F 76% 30.20 in 7.0 mi Calm Calm - N/A   Overcast
9:53 PM 10.9 °F 2.9 °F 5.0 °F 77% 30.18 in 6.0 mi North 4.6 mph - N/A   Haze
10:53 PM 10.9 °F 4.7 °F 6.1 °F 81% 30.16 in 7.0 mi NNE 3.5 mph - N/A   Overcast
11:53 PM 10.0 °F 3.6 °F 6.1 °F 84% 30.13 in 6.0 mi East 3.5 mph - N/A   Overcast